Location: Finkenwalde
(53.3770°N, 14.6418°E)
Time: 09:23:02
(UTC+00:00)

Landsat 7 - Pass Details

Date: 05 February 2023
Orbit: 692 x 694 km, 97.9° (Epoch: 19 March)

Event Time Altitude Azimuth Distance (km) Brightness Sun altitude
Exits shadow 18:13:15 51° 107° (ESE) 874 3.9 -21.2°
Maximum altitude 18:13:58 58° 69° (ENE) 816 3.8 -21.3°
Drops below altitude 10° 18:18:37 10° 352° (N) 2,166 6.5 -22.0°
Sets 18:20:54 0° 348° (NNW) 3,088 7.3 -22.4°
